Location: Les Jeannots
(43.2262°N, 5.5774°E)
Time: 17:50:19
(UTC+00:00)

Nadezhda 1 Rocket - Pass Details

Date: 05 July 2020
Orbit: 941 x 1005 km, 83.0° (Epoch: 13 August)

Event Time Altitude Azimuth Distance (km) Brightness Sun altitude
Rises 20:25:06 0° 351° (N) 3,741 8.0 -10.0°
Reaches altitude 10° 20:27:39 10° 352° (N) 2,789 7.3 -10.3°
Maximum altitude 20:34:05 87° 266° (W) 1,011 4.1 -11.2°
Drops below altitude 10° 20:40:28 10° 176° (S) 2,759 5.9 -12.0°
Enters shadow 20:41:03 - 176° (S) 2,978 6.1 -12.0°
